DW1024 Weather Reports


Display with metric or nautical units.
time (UTC)temp
F
wind
direction
speed
MPH
gust
MPH
rain 1hr
in
rain 24hr
in
rain mn
in
humidity
%
barometer
mb
20260831180420 69 219 1.0 4.0 0.00 0.00 0.00 61 1019.3
20260831174922 70 246 1.0 4.0 0.00 0.00 0.00 59 1019.2
20260831173422 71 229 1.0 4.0 0.00 0.00 0.00 58 1019.1
20260831171916 72 249 2.0 8.0 0.00 0.00 0.00 55 1019.1
20260831170418 73 273 3.0 8.0 0.00 0.00 0.00 55 1018.9
20260831164918 73 162 3.0 12.0 0.00 0.00 0.00 54 1018.6
20260831163416 74 264 2.0 8.0 0.00 0.00 0.00 51 1018.7
20260831160413 75 297 3.0 9.0 0.00 0.00 0.00 49 1018.4
20260831154912 75 238 2.0 9.0 0.00 0.00 0.00 50 1018.4
20260831150410 75 277 4.0 11.0 0.00 0.00 0.00 48 1018.7
20260831144914 75 323 3.0 10.0 0.00 0.00 0.00 47 1018.9
20260831143410 76 294 5.0 14.0 0.00 0.00 0.00 46 1018.9
20260831141911 78 324 5.0 15.0 0.00 0.00 0.00 42 1018.9
20260831140411 78 257 5.0 15.0 0.00 0.00 0.00 44 1019.0
20260831134910 77 194 6.0 16.0 0.00 0.00 0.00 44 1018.7
20260831133711 78 283 7.0 19.0 0.00 0.00 0.00 44 1018.9
20260831133039 77 276 6.0 15.0 0.00 0.00 0.00 48 1018.9
20260831130408 76 267 7.0 16.0 0.00 0.00 0.00 54 1019.1
20260831124911 78 271 4.0 16.0 0.00 0.00 0.00 50 1019.1
20260831123404 76 283 6.0 17.0 0.00 0.00 0.00 54 1019.1
20260831114906 77 259 5.0 12.0 0.00 0.00 0.00 55 1019.1
20260831113406 76 281 6.0 16.0 0.00 0.00 0.00 55 1019.1
20260831111907 78 276 5.0 13.0 0.00 0.00 0.00 56 1019.1
20260831110407 76 236 5.0 14.0 0.00 0.00 0.00 56 1019.2
20260831104907 78 209 3.0 13.0 0.00 0.00 0.00 56 1019.1
20260831103402 77 230 4.0 12.0 0.00 0.00 0.00 59 1019.1
20260831101902 76 145 5.0 12.0 0.00 0.00 0.00 59 1019.1
20260831100402 74 261 4.0 12.0 0.00 0.00 0.00 63 1019.1
20260831094906 75 240 5.0 12.0 0.00 0.00 0.00 61 1019.4
20260831093405 74 162 4.0 15.0 0.00 0.00 0.00 62 1019.5
20260831084904 73 211 3.0 13.0 0.00 0.00 0.00 65 1019.5
20260831083402 72 190 5.0 16.0 0.00 0.00 0.00 64 1019.3
20260831081905 72 255 4.0 11.0 0.00 0.00 0.00 64 1019.3
20260831080402 71 185 5.0 12.0 0.00 0.00 0.00 67 1019.3
20260831074902 71 297 4.0 11.0 0.00 0.00 0.00 69 1019.1
20260831073402 68 294 4.0 12.0 0.00 0.00 0.00 75 1018.9
20260831071904 68 180 3.0 10.0 0.00 0.00 0.00 75 1018.9
20260831070404 68 202 5.0 14.0 0.00 0.00 0.00 74 1018.8
20260831064902 69 273 4.0 11.0 0.00 0.00 0.00 74 1018.8
20260831063404 67 209 3.0 11.0 0.00 0.00 0.00 77 1018.7
20260831060404 66 233 3.0 12.0 0.00 0.00 0.00 78 1018.3
20260831054904 66 136 3.0 15.0 0.00 0.00 0.00 79 1018.3
20260831053405 65 302 3.0 13.0 0.00 0.00 0.00 81 1018.2
20260831051904 65 205 4.0 8.0 0.00 0.00 0.00 81 1018.1
20260831050404 64 228 2.0 10.0 0.00 0.00 0.00 82 1018.1
20260831044904 64 263 3.0 8.0 0.00 0.00 0.00 84 1017.9
20260831043411 64 194 2.0 8.0 0.00 0.00 0.00 85 1017.9
20260831040415 64 155 2.0 7.0 0.00 0.00 0.00 85 1018.1
20260831034921 64 321 2.0 5.0 0.00 0.00 0.00 84 1017.6
20260831033418 64 291 3.0 11.0 0.00 0.00 0.00 86 1017.7
20260831031905 64 201 4.0 14.0 0.00 0.00 0.00 86 1018.3
20260831030409 65 217 6.0 23.0 0.00 0.00 0.00 85 1018.7
20260831023408 65 195 0.0 3.0 0.00 0.00 0.00 85 1015.8
20260831021905 66 246 1.0 4.0 0.00 0.00 0.00 84 1015.9
20260831020405 66 222 1.0 4.0 0.00 0.00 0.00 84 1015.6
20260831013403 66 208 0.0 0.0 0.00 0.00 0.00 85 1015.7
20260831011901 66 198 0.0 0.0 0.00 0.00 0.00 84 1015.8
20260831004901 66 211 0.0 2.0 0.00 0.00 0.00 84 1016.2
20260831003402 66 211 0.0 1.0 0.00 0.00 0.00 83 1016.3
20260831001902 67 211 0.0 1.0 0.00 0.00 0.00 83 1016.5
20260831000403 67 211 1.0 2.0 0.00 0.00 0.00 82 1016.6
20260830234858 67 205 1.0 3.0 0.00 0.00 0.00 82 1016.5
20260830233359 67 202 0.0 2.0 0.00 0.00 0.00 81 1016.7
20260830230356 67 202 1.0 3.0 0.00 0.00 0.00 80 1017.0
20260830224858 67 200 0.0 2.0 0.00 0.00 0.00 80 1017.0
20260830223357 68 204 1.0 3.0 0.00 0.00 0.00 79 1017.2
20260830221901 68 210 0.0 2.0 0.00 0.00 0.00 79 1017.4
20260830220358 68 210 0.0 1.0 0.00 0.00 0.00 78 1017.4
20260830214857 69 210 0.0 2.0 0.00 0.00 0.00 77 1017.3
20260830213357 69 209 0.0 2.0 0.00 0.00 0.00 77 1017.2
20260830211856 69 210 0.0 2.0 0.00 0.00 0.00 77 1017.3
20260830203357 70 210 0.0 2.0 0.00 0.00 0.00 74 1017.2
20260830201900 71 210 1.0 2.0 0.00 0.00 0.00 73 1017.2
20260830194855 71 290 0.0 0.0 0.00 0.00 0.00 71 1017.5
20260830191853 70 290 0.0 0.0 0.00 0.00 0.00 74 1017.4
20260830190358 71 290 0.0 0.0 0.00 0.00 0.00 71 1017.3
20260830181853 74 290 0.0 0.0 0.00 0.00 0.00 65 1016.9